This demonstration page uses our WeatherBlox Daily Observations layout. Learn more.

39.29038, -76.61219

Hourly Observations for September 28, 2016

Temp ( °F °C ) Dew Point ( °F °C ) Humidity (%) Winds ( mph kmh ) Pressure ( in mb ) Visibility ( mi km ) Precip ( " mm )
12:54 am 00:54 undefined 66 18.9 60 15.6 81 81 undefined N/A 29.96 1015 N/A 0 0
1:54 am 01:54 undefined 66 18.9 60 15.6 81 81 undefined N/A 29.97 1015 N/A 0 0
2:54 am 02:54 undefined 65 18.3 60 15.6 84 84 undefined N/A 29.97 1015 N/A 0 0
3:54 am 03:54 undefined 64 17.8 61 16.1 90 90 undefined N/A 29.97 1015 N/A 0 0
4:54 am 04:54 undefined 63 17.2 60 15.6 90 90 undefined N/A 29.97 1015 N/A 0 0
5:54 am 05:54 undefined 63 17.2 60 15.6 90 90 undefined N/A 29.98 1015 N/A 0 0
6:54 am 06:54 undefined 63 17.2 59 15 87 87 undefined N/A 29.99 1016 N/A 0 0
7:54 am 07:54 undefined 63 17.2 58 14.4 84 84 undefined N/A 30 1016 N/A 0 0
8:54 am 08:54 undefined 64 17.8 59 15 84 84 undefined N/A 30.01 1016 N/A 0 0
9:54 am 09:54 undefined 64 17.8 59 15 84 84 undefined N/A 30.03 1017 N/A 0 0
10:54 am 10:54 undefined 66 18.9 59 15 78 78 undefined N/A 30.03 1017 N/A 0 0
11:54 am 11:54 undefined 68 20 61 16.1 78 78 undefined N/A 30.04 1017 N/A 0 0
12:54 pm 12:54 undefined 69 20.6 62 16.7 78 78 undefined N/A 30.04 1017 N/A 0 0
1:54 pm 13:54 undefined 68 20 62 16.7 81 81 undefined N/A 30.05 1018 N/A 0.01 0.254
2:54 pm 14:54 undefined 68 20 63 17.2 84 84 undefined N/A 30.02 1017 N/A 0.07 1.778
3:54 pm 15:54 undefined 69 20.6 62 16.7 78 78 undefined N/A 30.02 1017 N/A 0 0
4:54 pm 16:54 undefined 69 20.6 64 17.8 84 84 undefined N/A 30.01 1016 N/A 0 0
5:54 pm 17:54 undefined 70 21.1 65 18.3 84 84 undefined N/A 30.05 1018 N/A 0 0
6:54 pm 18:54 undefined 68 20 66 18.9 93 93 undefined N/A 30.05 1018 N/A 0.69 17.526
7:54 pm 19:54 undefined 68 20 65 18.3 90 90 undefined N/A 30.06 1018 N/A 0.04 1.016
8:54 pm 20:54 undefined 67 19.4 63 17.2 87 87 undefined N/A 30.07 1018 N/A 0 0
9:54 pm 21:54 undefined 66 18.9 62 16.7 87 87 undefined N/A 30.08 1019 N/A 0 0
10:54 pm 22:54 undefined 66 18.9 63 17.2 90 90 undefined N/A 30.06 1018 N/A 0.03 0.762
11:54 pm 23:54 undefined 66 18.9 63 17.2 90 90 undefined N/A 30.07 1018 N/A 0.03 0.762

Powered by AerisWeather